Location: Unspecified
(0.0000°N, 0.0000°E)
Time: 14:08:17
(UTC+00:00)

Vanguard 3 - Pass Details

Date: 12 December 2025
Orbit: 507 x 3207 km, 33.3° (Epoch: 22 January)

Event Time Altitude Azimuth Distance (km) Brightness Sun altitude
Rises 23:57:30 0° 258° (WSW) 3,796 - -66.9°
Reaches altitude 10° 00:00:43 10° 240° (WSW) 3,215 - -66.9°
Maximum altitude 00:06:28 20° 196° (SSW) 3,165 - -66.7°
Exits shadow 00:10:50 16° 169° (S) 3,873 10.7 -66.5°
Drops below altitude 10° 00:14:35 10° 155° (SSE) 4,718 11.2 -66.4°
Sets 00:20:57 0° 140° (SE) 6,274 12.0 -66.0°
